COSMOS 2251 DEB

Satellite information

Favourite Embed

Satellite Type and Status

DEBRISIN ORBIT

Key statistics

Satellite COSMOS 2251 DEB at a glance.

Uptime

11868

Days in orbit

Revolutions

≈ 14.5

Per day

Orbit

LEO

Low Earth Orbit

Inclination

74.2

Latest

Satellite identification and parameters

Extended collection of information and parameters for COSMOS 2251 DEB.

Object identification

Identified? True

Debris? True

Object name: COSMOS 2251 DEB

International designator: 1993-036ACW

Object number (NORAD): 34883

Object ID (CCSDS): 34883

Country: COMMONWEALTH OF INDEPENDENT STATES (CIS)

Current information (Y/N): Y

RCS size: SMALL

Orbital parameters

Period: 99.209 minutes

Inclination: 74.1989 deg

SMA: 7098.965 km

Apoapsis: 788.373 km

Periapsis: 653.287 km

RAAN: 63.6857 deg

Eccentricy: 0.00951451

Argument of periapsis: 248.9733 deg

Mean anomaly: 110.1233 deg

Mean motion: 14.51477124 rev/day

Mean motion (dot): 0.00027049 rev/day2

B* drag term: 0.0063651984 1/REarth

Two-line elements (TLE)

Creation date: Dec. 12, 2025, 10:14 a.m.

Reference frame: TEME

Reference center: EARTH

Epoch: Dec. 12, 2025, 5:16 a.m. UTC

TLE line 0: 0 COSMOS 2251 DEB

TLE line 1: 1 34883U 93036ACW 25346.21997797 .00027049 00000-0 63652-2 0 9994

TLE line 2: 2 34883 74.1989 63.6857 0095145 248.9733 110.1233 14.51477124864321

Live tracking on map

Real-time ground track for satellite COSMOS 2251 DEB.

In-orbit conjunctions

A list of the most updated potential collisions computed for object COSMOS 2251 DEB.

Target Orbit TCA Probability of collision Miss distance Type
DELTA 1 DEB SSO 2025-11-07 04:59:19 0.0001122937 172.0 (m) DEBRIS
CZ-6A DEB LEO 2024-09-21 12:01:48 0.000106325 476.0 (m) DEBRIS
CZ-6A DEB SSO 2024-06-13 05:15:32 0.0001809242 60.0 (m) DEBRIS

Associated space launch

Military communications satellite. Destroyed in a collision with Iridium 33.

COSMOS 2251 DEB was lifted into orbit during the mission ‘Kosmos-3M | Strela-2M 51’, on board a Kosmos-3M space rocket.

The launch took place on June 16, 1993, 4:17 a.m. from 132/1 (132L).

For more information about the launch, click the button.

Launch to space Kosmos-3M | Strela-2M 51
Kosmos-3M | Strela-2M 51

Agency: N/A

Status: Launch Successful

Launch date: June 16, 1993, 4:17 a.m. UTC

Rocket: Kosmos-3M

Launch pad: 132/1 (132L)

Location: Plesetsk Cosmodrome, Russian Federation

...

Latest news about this satellite

There are no fresh news available about this satellite. Check back as we update our databases every day.


Newsletter sign-up

Weekly statistics, charts and insights to help you stay on top of the space industry.